Miscellaneous Local Product
Issued by NWS Hastings, NE

Home | Current Version | Previous Version | Text Only | Print | Product List | Glossary Off
Versions: 1 2 3 4 5 6 7 8 9 10 11 12 13 14 15 16 17 18 19 20 21 22 23 24 25 26 27 28 29 30 31 32 33 34 35 36 37 38 39 40 41 42 43 44 45 46 47 48 49 50

000
AXUS43 KGID 270302
MISGRI

GID CWA HOURLY WEATHER ROUNDUP
NATIONAL WEATHER SERVICE HASTINGS NE
900 PM CST MON JAN 26 2015

NOTE: "FAIR" INDICATES FEW OR NO CLOUDS BELOW 12,000 FEET WITH NO
SIGNIFICANT WEATHER AND/OR OBSTRUCTIONS TO VISIBILITY.

...SOUTH CENTRAL NEBRASKA...

CITY           SKY/WX    TMP DP  RH WIND       PRES   REMARKS
GRAND ISLAND   CLEAR     35  28  75 CALM      30.05R
HASTINGS       CLEAR     38  27  64 CALM      30.04S
KEARNEY        PTCLDY    39  28  65 W3        30.06R
ORD            CLEAR     32  27  81 SW6       30.03S WCI  26
YORK           CLEAR     41  28  60 NW5       30.04R
AURORA         CLEAR     39  30  70 NW5       30.04R
LEXINGTON      CLEAR     35  28  74 W6        30.06S WCI  30
HOLDREGE       CLEAR     40  27  60 W6        30.07R
HEBRON         CLEAR     39  28  63 CALM      30.04S

...NEBRASKA PANHANDLE...

CITY           SKY/WX    TMP DP  RH WIND       PRES   REMARKS
CHADRON        CLEAR     37  30  75 SW9       30.05S WCI  30
ALLIANCE       CLEAR     34  29  82 W9        30.08F WCI  27
SCOTTSBLUFF    CLEAR     43  31  62 NW9       30.12R
SIDNEY         CLEAR     38  28  67 W12       30.15R WCI  30

...WESTERN AND NORTH CENTRAL NEBRASKA...

CITY           SKY/WX    TMP DP  RH WIND       PRES   REMARKS
VALENTINE      CLEAR     35  29  78 W6        30.02S WCI  30
AINSWORTH      CLEAR     37  31  78 W5        30.03R WCI  33
ONEILL         CLEAR     39  31  74 SW5       30.04R
BROKEN BOW     CLEAR     33  27  78 CALM      30.04S
IMPERIAL       CLEAR     45  28  51 W9        30.11S
NORTH PLATTE   CLEAR     30  26  85 CALM      30.08R
MCCOOK         CLEAR     47  29  49 W5        30.09R

...EASTERN NEBRASKA...

CITY           SKY/WX    TMP DP  RH WIND       PRES   REMARKS
NORFOLK        CLEAR     40  31  70 W5        30.02R
SO SIOUX CITY  CLEAR     37  32  82 NW6       30.02R WCI  32
TEKAMAH        CLEAR     37  31  78 NW6       30.01R WCI  32
COLUMBUS       CLEAR     30  23  74 W6        30.05R WCI  24
ALBION         CLEAR     38  28  69 N3        30.04S
OMAHA EPPLEY   PTCLDY    42  33  70 NE6       30.01R
OFFUTT AFB     CLEAR     42  33  70 W8        30.00R
MILLARD        CLEAR     47  34  60 NW3       30.01R
LINCOLN        CLEAR     38  28  67 CALM      30.04S
NEBRASKA CITY  CLEAR     42  28  56 W7        30.01S
BEATRICE       CLEAR     38  27  66 CALM      30.03S
FALLS CITY     PTCLDY    39  29  67 NW9       30.01R WCI  33

...NORTHERN KANSAS...

CITY           SKY/WX    TMP DP  RH WIND       PRES   REMARKS
GOODLAND       CLEAR     44  32  62 SW10      30.16S
HILL CITY      CLEAR     46  29  51 W7        30.09S
NORTON         CLEAR     46  28  49 NW10      30.08R
PHILLIPSBURG   CLEAR     46  30  53 CALM      30.08R
SMITH CENTER   CLEAR     46  28  49 NW3       30.07R
BELOIT         CLEAR     36  27  69 CALM      30.05S
HAYS           CLEAR     46  27  46 NW9       30.09R
RUSSELL        CLEAR     43  30  60 SW6       30.06R
CONCORDIA      CLEAR     47  33  58 W6        30.04S
SALINA         CLEAR     45  32  60 CALM      30.06R
TOPEKA         CLEAR     47  29  49 CALM      30.03R



USA.gov is the U.S. government's official web portal to all federal, state and local government web resources and services.